Tracking 27428 objects as of 31-May-2023
HD Live streaming from Space Station
objects crossing your sky now

SXC3-217 (SIREN)

Track SXC3-217 (SIREN) now!
10-day predictions
SXC3-217 (SIREN) is classified as:


NORAD ID: 53384
Int'l Code: 2022-096Q
Perigee: 464.5 km
Apogee: 472.7 km
Inclination: 97.4 °
Period: 93.8 minutes
Semi major axis: 6839 km
RCS: Unknown
Launch date: August 9, 2022
Source: (TBD)
Launch site: TYURATAM MISSILE AND SPACE COMPLEX (TTMTR)

Uplink (MHz):
Downlink (MHz): 437.750
Beacon (MHz):
Mode: 2400bps GMSK USP
Call sign: RS30S
Status: Active

Your satellite tracking list
Your tracking list is empty




NASA's NSSDC Master Catalog

Two Line Element Set (TLE):
1 53384U 22096Q   23151.20773803  .00017773  00000-0  52807-3 0  9994
2 53384  97.4171  57.0748 0006034 109.0704 251.1193 15.34811550 45069
Source of the keplerian elements: AFSPC